Location: Les Jeannots
(43.2262°N, 5.5774°E)
Time: 17:48:07
(UTC+00:00)

Cosmos 2297 - Pass Details

Date: 05 July 2020
Orbit: 835 x 859 km, 71.0° (Epoch: 13 August)

Event Time Altitude Azimuth Distance (km) Brightness Sun altitude
Rises 22:47:28 0° 338° (NNW) 3,442 8.3 -22.9°
Reaches altitude 10° 22:49:59 10° 342° (NNW) 2,500 7.3 -23.0°
Maximum altitude 22:55:39 57° 61° (ENE) 999 4.1 -23.2°
Enters shadow 22:57:28 40° 118° (ESE) 1,240 4.2 -23.3°
